Weather History for Knox, IN

Change the Weather History Date:

Friday, May 16, 2014

  Actual Average (KVPZ) Record (KVPZ)
Temperature  
Mean Temperature 40 °F 59 °F  
Max Temperature 90 °F 70 °F 87 °F (2001)
Min Temperature 35 °F 48 °F 35 °F (2014)
Degree Days  
Heating Degree Days 26 7  
Month to date heating degree days 142  
Since 1 July heating degree days 6201  
Cooling Degree Days 0 1  
Month to date cooling degree days 12  
Year to date cooling degree days 17  
Moisture  
Dew Point 36 °F    
Average Humidity 83    
Maximum Humidity 94    
Minimum Humidity 74    
Precipitation  
Precipitation 0.00 in 0.12 in 0.54 in (2001)
Month to date precipitation 2.01  
Year to date precipitation 11.19  
Sea Level Pressure  
Sea Level Pressure 30.03 in    
Wind  
Wind Speed 5 mph (NE)    
Max Wind Speed 14 mph    
Max Gust Speed -    
Visibility 10 miles    
Events      
T = Trace of Precipitation, MM = Missing Value Source: NWS Daily Summary

Daily Weather History Graph

Daily Weather History Graph

Search for Another Location

Airport:

Trip Planner

Search our weather history database for the weather conditions in past years. The results will help you decide how hot, cold, wet, or windy it might be!

Date:

Astronomy

May. 16, 2014 Rise Set
Actual Time 5:27 AM CDT 7:59 PM CDT
Civil Twilight 4:55 AM CDT 8:31 PM CDT
Nautical Twilight 4:16 AM CDT 9:10 PM CDT
Astronomical Twilight 3:32 AM CDT 9:55 PM CDT
Moon 10:05 PM CDT (5/16) 7:08 AM CDT (5/16)
Length of Visible Light 15h 35m
Length of Day
14h 32m
Waning Gibbous, 95% of the Moon is Illuminated
May 16
Waning Gibbous
May 21
Last Quarter
May 28
New
Jun 5
First Quarter
Jun 12
Full

Hourly Weather History & Observations

Time (CDT) Temp. Windchill Dew Point Humidity Pressure Visibility Wind Dir Wind Speed Gust Speed Precip Events Conditions
12:15 AM 36.9 °F - 34.9 °F 93% 30.03 in 10.0 mi Calm Calm - N/A   Mostly Cloudy
12:35 AM 37.4 °F - 35.1 °F 91% 30.03 in 10.0 mi Calm Calm - N/A   Mostly Cloudy
12:55 AM 36.7 °F - 34.7 °F 93% 30.02 in 10.0 mi Calm Calm - N/A   Scattered Clouds
1:15 AM 35.4 °F - 33.8 °F 94% 30.02 in 10.0 mi Calm Calm - N/A   Clear
1:35 AM 35.4 °F - 33.8 °F 94% 30.01 in 10.0 mi Calm Calm - N/A   Scattered Clouds
1:55 AM 35.6 °F - 33.4 °F 92% 30.01 in 10.0 mi Calm Calm - N/A   Mostly Cloudy
2:15 AM 35.6 °F 32.8 °F 33.6 °F 92% 30.01 in 10.0 mi NE 3.5 mph - N/A   Mostly Cloudy
2:35 AM 35.6 °F 31.7 °F 33.3 °F 91% 30.01 in 10.0 mi NE 4.6 mph - N/A   Overcast
2:55 AM 36.7 °F 34.1 °F 34.0 °F 90% 30.01 in 10.0 mi ENE 3.5 mph - N/A   Overcast
3:15 AM 37.0 °F 34.5 °F 34.5 °F 91% 30.01 in 10.0 mi East 3.5 mph - N/A   Overcast
3:35 AM 37.4 °F 33.8 °F 34.7 °F 90% 30.00 in 10.0 mi ENE 4.6 mph - N/A   Overcast
3:55 AM 37.9 °F 34.4 °F 34.7 °F 88% 30.00 in 10.0 mi ENE 4.6 mph - N/A   Overcast
4:15 AM 38.5 °F 36.1 °F 34.7 °F 86% 30.00 in 10.0 mi ENE 3.5 mph - N/A   Overcast
4:35 AM 38.5 °F 36.1 °F 34.7 °F 86% 30.00 in 10.0 mi ENE 3.5 mph - N/A   Overcast
4:55 AM 38.3 °F 34.8 °F 34.9 °F 87% 30.00 in 10.0 mi ENE 4.6 mph - N/A   Overcast
5:15 AM 38.3 °F 33.9 °F 35.1 °F 88% 30.00 in 10.0 mi ENE 5.8 mph - N/A   Overcast
5:35 AM 38.7 °F 36.3 °F 35.4 °F 88% 30.00 in 10.0 mi ENE 3.5 mph - N/A   Overcast
5:55 AM 39.2 °F 37.0 °F 35.8 °F 88% 30.01 in 7.0 mi ENE 3.5 mph - N/A   Overcast
6:15 AM 39.2 °F 34.2 °F 35.6 °F 87% 30.01 in 7.0 mi NE 6.9 mph - N/A   Overcast
6:35 AM 39.2 °F 34.2 °F 35.6 °F 87% 30.01 in 10.0 mi ENE 6.9 mph - N/A   Overcast
6:55 AM 39.2 °F 35.9 °F 35.8 °F 88% 30.02 in 10.0 mi East 4.6 mph - N/A   Overcast
7:15 AM 39.4 °F 35.2 °F 36.0 °F 88% 30.02 in 10.0 mi ENE 5.8 mph - N/A   Overcast
7:35 AM 39.6 °F 34.7 °F 36.5 °F 89% 30.01 in 7.0 mi ENE 6.9 mph - N/A   Overcast
7:55 AM 39.9 °F 36.7 °F 36.7 °F 88% 30.02 in 7.0 mi NE 4.6 mph - N/A   Overcast
8:15 AM 40.1 °F 35.3 °F 36.3 °F 86% 30.02 in 10.0 mi NE 6.9 mph - N/A   Overcast
8:35 AM 40.1 °F 34.7 °F 35.8 °F 85% 30.02 in 10.0 mi NE 8.1 mph - N/A   Overcast
8:55 AM 40.3 °F 34.4 °F 36.0 °F 85% 30.02 in 10.0 mi NE 9.2 mph - N/A   Overcast
9:15 AM 40.8 °F 35.0 °F 36.5 °F 85% 30.01 in 10.0 mi NE 9.2 mph - N/A   Overcast
9:35 AM 41.4 °F 35.7 °F 36.1 °F 82% 30.01 in 10.0 mi ENE 9.2 mph - N/A   Overcast
9:55 AM 41.5 °F 35.4 °F 36.1 °F 81% 30.02 in 10.0 mi ENE 10.4 mph - N/A   Overcast
10:15 AM 41.5 °F 35.4 °F 36.0 °F 81% 30.01 in 10.0 mi ENE 10.4 mph - N/A   Overcast
10:35 AM 41.9 °F 36.9 °F 36.1 °F 80% 30.01 in 10.0 mi NE 8.1 mph - N/A   Overcast
10:55 AM 42.1 °F 36.6 °F 36.1 °F 79% 30.01 in 10.0 mi ENE 9.2 mph - N/A   Overcast
11:15 AM 42.8 °F 37.5 °F 36.3 °F 78% 30.01 in 10.0 mi ENE 9.2 mph - N/A   Overcast
11:35 AM 43.5 °F 37.9 °F 36.9 °F 77% 30.01 in 10.0 mi ENE 10.4 mph - N/A   Overcast
11:55 AM 44.4 °F 39.5 °F 37.6 °F 77% 30.01 in 10.0 mi ENE 9.2 mph - N/A   Overcast
12:15 PM 44.6 °F 39.2 °F 37.6 °F 76% 30.01 in 10.0 mi NE 10.4 mph - N/A   Overcast
12:35 PM 44.8 °F 39.9 °F 37.8 °F 76% 30.01 in 10.0 mi NE 9.2 mph - N/A   Overcast
12:55 PM 44.8 °F 39.9 °F 37.2 °F 75% 30.01 in 10.0 mi NE 9.2 mph - N/A   Overcast
1:15 PM 44.8 °F 39.9 °F 37.0 °F 74% 30.01 in 10.0 mi NE 9.2 mph - N/A   Overcast
1:35 PM 44.8 °F 40.4 °F 37.6 °F 76% 30.01 in 10.0 mi NE 8.1 mph - N/A   Overcast
1:55 PM 44.6 °F 41.4 °F 37.9 °F 77% 30.01 in 10.0 mi NE 5.8 mph - N/A   Overcast
2:15 PM 44.2 °F 40.3 °F 38.3 °F 80% 30.01 in 10.0 mi NE 6.9 mph - N/A   Overcast
2:35 PM 44.2 °F 39.2 °F 39.2 °F 82% 30.01 in 10.0 mi NE 9.2 mph - N/A   Overcast
2:55 PM 44.6 °F 39.2 °F 39.2 °F 81% 30.01 in 10.0 mi NNE 10.4 mph - N/A   Overcast
3:15 PM 44.6 °F 38.4 °F 39.4 °F 82% 30.01 in 10.0 mi NNE 12.7 mph - N/A   Overcast
3:35 PM 44.6 °F 38.8 °F 38.8 °F 80% 30.01 in 10.0 mi NNE 11.5 mph - N/A   Overcast
3:55 PM 44.2 °F 38.8 °F 38.3 °F 80% 30.01 in 10.0 mi North 10.4 mph - N/A   Overcast
4:15 PM 44.1 °F 39.0 °F 38.7 °F 81% 30.01 in 10.0 mi North 9.2 mph - N/A   Overcast
4:35 PM 43.7 °F 37.3 °F 38.3 °F 81% 30.02 in 10.0 mi NNE 12.7 mph - N/A   Overcast
4:55 PM 43.5 °F 37.1 °F 38.1 °F 81% 30.02 in 10.0 mi North 12.7 mph - N/A   Overcast
5:15 PM 43.0 °F 36.0 °F 37.6 °F 81% 30.02 in 10.0 mi NNE 13.8 mph - N/A   Overcast
5:35 PM 42.1 °F 35.7 °F 36.5 °F 81% 30.03 in 10.0 mi North 11.5 mph - N/A   Overcast
5:55 PM 41.9 °F 35.9 °F 36.1 °F 80% 30.03 in 10.0 mi NNE 10.4 mph - N/A   Overcast
6:15 PM 41.7 °F 34.4 °F 35.8 °F 79% 30.03 in 10.0 mi NNE 13.8 mph - N/A   Overcast
6:35 PM 41.4 °F 34.3 °F 35.2 °F 79% 30.03 in 10.0 mi NNE 12.7 mph - N/A   Overcast
6:55 PM 41.0 °F 34.3 °F 35.1 °F 79% 30.04 in 10.0 mi North 11.5 mph - N/A   Overcast
7:15 PM 40.6 °F 34.3 °F 34.3 °F 78% 30.05 in 10.0 mi NNE 10.4 mph - N/A   Overcast
7:35 PM 40.6 °F 34.8 °F 34.3 °F 78% 30.05 in 10.0 mi NNE 9.2 mph - N/A   Overcast
7:55 PM 40.6 °F 34.8 °F 34.2 °F 78% 30.05 in 10.0 mi NNE 9.2 mph - N/A   Overcast
8:15 PM 40.3 °F 34.4 °F 33.8 °F 78% 30.05 in 10.0 mi NNE 9.2 mph - N/A   Overcast
8:35 PM 40.1 °F 36.1 °F 34.0 °F 79% 30.06 in 10.0 mi North 5.8 mph - N/A   Overcast
8:55 PM 40.3 °F 38.2 °F 34.2 °F 79% 30.07 in 10.0 mi North 3.5 mph - N/A   Overcast
9:15 PM 40.1 °F 38.0 °F 33.8 °F 78% 30.08 in 10.0 mi NNW 3.5 mph - N/A   Overcast
9:35 PM 40.5 °F - 33.8 °F 77% 30.08 in 10.0 mi Calm Calm - N/A   Overcast
9:55 PM 40.6 °F 38.6 °F 34.2 °F 78% 30.08 in 10.0 mi West 3.5 mph - N/A   Overcast
10:15 PM 41.0 °F - 34.7 °F 78% 30.08 in 10.0 mi Calm Calm - N/A   Overcast
10:35 PM 40.8 °F - 33.8 °F 76% 30.08 in 10.0 mi Calm Calm - N/A   Overcast
10:55 PM 40.6 °F - 34.3 °F 78% 30.08 in 10.0 mi Calm Calm - N/A   Overcast
11:15 PM 40.6 °F 38.6 °F 34.5 °F 79% 30.08 in 10.0 mi NW 3.5 mph - N/A   Overcast
11:35 PM 40.6 °F 38.6 °F 35.6 °F 82% 30.08 in 10.0 mi NW 3.5 mph - N/A   Overcast
11:55 PM 40.8 °F 38.8 °F 35.6 °F 82% 30.08 in 10.0 mi WNW 3.5 mph - N/A   Overcast